Regional Weather Roundup
Issued by NWS

Home | Current Version | Previous Version | Graphics & Text | Print | Product List | Glossary On
Versions: 1 2 3 4 5 6 7 8 9 10 11 12 13 14 15 16 17 18 19 20 21 22 23 24 25 26 27 28 29 30 31 32 33 34 35 36 37 38 39 40 41 42 43 44 45 46 47 48 49 50
360
ASUS43 KIND 210509
RWRIN

WEATHER ROUNDUP FOR INDIANA
NATIONAL WEATHER SERVICE INDIANAPOLIS IN
1200 AM EST TUE FEB 21 2017

NOTE: "FAIR" INDICATES FEW OR NO CLOUDS BELOW 12,000 FEET WITH NO
SIGNIFICANT WEATHER AND/OR OBSTRUCTIONS TO VISIBILITY.

* - STATION DOES NOT REPORT WEATHER SUCH AS PRECIPITATION OR FOG.

+ - STATION NOT QUALITY CONTROLLED BY THE NATIONAL WEATHER SERVICE.
    USE DATA WITH CAUTION...ESPECIALLY DEWPOINT AND RELATIVE
    HUMIDITY OBSERVATIONS.

INZ001>003-010>013-019-020-210600-
NORTHWEST INDIANA

CITY           SKY/WX    TMP DP  RH WIND       PRES   REMARKS
GARY /AIRPORT/ CLOUDY    60  45  56 SE10G17   29.93F
KNOX *+        CLOUDY    54  27  35 SE13      29.96F
LA PORTE +     CLOUDY    55  45  67 S9        29.97F
MICHIGAN CITY+ MOCLDY    55  45  67 S9G17     29.96S
MONTICELLO +   CLOUDY    55  47  72 SE7       29.96F
RENSSELAER +   MOCLDY    55  46  71 SE10      29.96R
VALPARAISO     CLOUDY    57  47  69 S9        29.96F

$$

LMZ046-743>745-210600-
SOUTHERN LAKE MICHIGAN

STATION/POSITION TIME  TEMP    WIND        PRES    WAVE
                       AIR SEA DIR/SP/G            HT
                 (UTC) (F)     (DEG/KT/KT) (MB)    (FT)
BURNS HARBOR     0440   59     170/ 15/ 26 1014.2F
MICHIGAN CITY    0440   57     130/ 16/ 19   N/A

$$

INZ004-005-014>016-021>024-210600-
NORTH CENTRAL INDIANA

CITY           SKY/WX    TMP DP  RH WIND       PRES   REMARKS
GOSHEN         CLOUDY    49  38  65 SE13      30.00F
LOGANSPORT +   CLOUDY    54  45  71 SE10      30.00F
PERU/GRISSOM   CLOUDY    52  47  84 SE8       29.98F
ROCHESTER +    MOCLDY    55  43  62 SE8       29.99F
SOUTH BEND     MOCLDY    55  42  61 SE18      29.99F
WARSAW +       CLOUDY    52  41  66 SE8       30.00F

$$

INZ006>009-017-018-025>027-210600-
NORTHEAST INDIANA

CITY           SKY/WX    TMP DP  RH WIND       PRES   REMARKS
ANGOLA *+      CLEAR     43  36  75 SE8       30.03F
AUBURN +       CLOUDY    43  34  70 E7        30.05F
FORT WAYNE     CLOUDY    47  41  80 E7        30.03F
HUNTINGTON +   CLOUDY    52  41  66 SE6       30.02F
KENDALLVILLE + CLOUDY    43  35  73 SE9       30.04F

$$

INZ028-029-035-036-043>045-051>053-210600-
WEST CENTRAL INDIANA

CITY           SKY/WX    TMP DP  RH WIND       PRES   REMARKS
GREENCASTLE +  CLOUDY    50  45  81 SE6       30.00F
LAFAYETTE      CLOUDY    57  48  72 SE10G20   29.96F
TERRE HAUTE    PTCLDY    58  45  62 SE9       29.97F

$$

INZ030>032-037>040-046>048-054>057-064-065-210600-
CENTRAL INDIANA

CITY           SKY/WX    TMP DP  RH WIND       PRES   REMARKS
FRANKFORT +    CLOUDY    55  49  80 SE10      30.00F
GREENWOOD *+   CLOUDY    55  48  78 SE6       30.02F
INDIANAPOLIS   CLOUDY    56  47  71 SE13      30.01F
-EAGLE CREEK   CLOUDY    57  47  69 SE6       30.00F
KOKOMO +       CLOUDY    53  46  77 SE9       30.01F
MARION +       CLOUDY    52  42  70 SE8       30.02F
MT COMFORT *+  CLOUDY    54  45  71 SE8       30.02F
SHELBYVILLE    CLOUDY    56  45  66 SE9       30.01F
ZIONSVILLE +   CLOUDY    54  47  75 SE9       30.01F

$$

INZ033-034-041-042-049-050-058-059-210600-
EAST CENTRAL INDIANA

CITY           SKY/WX    TMP DP  RH WIND       PRES   REMARKS
MUNCIE         CLOUDY    57  40  52 SE8       30.02F

$$

INZ060-061-067>069-081>083-085>088-210600-
SOUTHWEST INDIANA

CITY           SKY/WX    TMP DP  RH WIND       PRES   REMARKS
EVANSVILLE     MOCLDY    54  47  77 E3        29.99F
HUNTINGBURG *+ CLOUDY    57  46  67 SE5       30.01S
WASHINGTON +   PTCLDY    52  46  79 SE6       29.99F

$$

INZ062-063-066-070>080-084-089>092-210600-
SOUTH CENTRAL AND SOUTHEAST INDIANA

CITY           SKY/WX    TMP DP  RH WIND       PRES   REMARKS
BEDFORD +      MOCLDY   N/A N/A N/A SE7       30.01F
BLOOMINGTON    PTCLDY    52  43  71 CALM      30.00F
MADISON *+     PTCLDY    55  43  62 E7        30.05F
NORTH VERNON + MOCLDY    55  46  71 E8        30.03F
SEYMOUR +      MOCLDY    54  45  71 E3        30.01F

$$





USA.gov is the U.S. government's official web portal to all federal, state and local government web resources and services.